ASEANPOKER: Dominobet,DominoQQ,Domino 88,Bandar Ceme,Bandar Poker Terpercaya

Jackpot

Texas Poker Multi Jackpot System

Kini Telah hadir Jackpot SUPER ROYAL FLUSH

Kini Telah hadir Jackpot 2000 (khusus table VIP keatas).

Ikutilah global jackpot yang tersedia di system kami, dengan system jackpot terbaru dan pertama di indonesia, anda dapat membeli jackpot dengan harga 100 rupiah saja dan menangkan hadiahnya hingga puluhan juta rupiah.

Jackpot bukanlah suatu keharusan untuk dibeli, namun kami memberikan suatu fitur tambahan untuk member tercinta dari www.aseanpoker.co.

Terdapat tiga pilihan harga jackpot yang bisa anda beli yaitu :100,500,1000 dan 2000(khusus table VIP Keatas) rupiah.

Hadiah dari Multi jackpot system www.aseanpoker.co

  1. full house x 10 harga jackpot yang anda beli.
      (contoh:anda membeli 1000 maka:1000 X10 = 10.000)
  2. four of kind x 250 harga jackpot yang anda beli
      (contoh:anda membeli 1000 maka:1000 X250 = 250.000)
  3. Straight flush x 1200
      (contoh:anda membeli 1000 maka:1000 X1200 = 1.200.000)
  4. Royal flush x 10000 harga jackpot yang anda beli
      (contoh:anda membeli 1000 maka:1000 X10000 = 10.000.000)
  5. SUPER ROYAL FLUSH x 30000 harga jackpot yang anda beli
      (contoh:anda membeli 1000 maka:1000 X30000 = 30.000.000)

Kondisi kartu

  1. full house adalah kondisi kartu dimana kartu anda dan kartu tengah dengan total 7 kartu bisa mendapatkan nilai 5 kartu dengan kombinasi 1 tris(three of kind) dan 1 pair, contoh 3 kartu 10 dan 2 kartu 5
  2. Four of kind adalah kondisi kartu dimana kartu anda dan kartu tengah dengan total 7 kartu bisa mendapatkan nilai 5 kartu dengan kombinasi 4 kartu yang sama jumlah dan 1 kartu apapun juga contoh anda mendapatkan 4 buah kartu angka 3 dan 1 kartu apapun.
  3. Staright flush adalah kondisi kartu dimana kartu anda dan kartu tengah dengan total 7 kartu bisa mendapatkan nilai 5 kartu dengan kombinasi seri / staright dengan kembang yang sama contoh : urutan kartu dari angka 5, 6, 7, 8 , 9 10 dengan kembang yg sama misalnya as hati
  4. Royal flush adalah kondisi kartu dimana kartu anda dan kartu tengah dengan total 7 kartu bisa mendapatkan nilai 5 kartu dengan kombinasi seri / staright dengan kembang yang sama tetapi kartu tersebut haruslah dimulai dari 10. contoh 10, Queen, Jack, King dan aces dengan kembang yang sama
  5. Super Royal flush adalah kondisi kartu dimana Kedua kartu anda digabung dengan 3 kartu pertama meja haruslah royal flush. contoh kartu anda 10,Queen kembang sama dan 3 kartu pertama meja adalah Jack, King dan aces dengan kembang yang sama

Demikian adalah penjelasan dari Multi Jackpot www.aseanpoker.co terima kasih dan selamat bermain salam hoki dari kami

Texas Poker Jackpot Winner

TOP SUPER ROYAL FLUSH
No.TanggalNamaPriceWin
125/09 00:17N0AH16Super Royal flush3,000,000
224/09 23:12SAF99Super Royal flush1,500,000
324/09 16:34OPPOF9Super Royal flush30,000,000
424/09 14:33ALL19Super Royal flush6,000,000
524/09 05:39MIFTAHUL42Super Royal flush15,000,000
TOP ROYAL FLUSH
No.TanggalNamaPriceWin
125/09 02:15CANTIK33Royal flush1,000,000
225/09 01:58B61A1208891Royal flush500,000
325/09 01:52KUMBANG13Royal flush500,000
425/09 01:50CANABIS66Royal flush2,000,000
525/09 01:45I4E496OL2RRoyal flush2,000,000
TOP STRAIGHT FLUSH
No.TanggalNamaPriceWin
125/09 02:16BWTCH88Straight Flush2,400,000
225/09 02:14ARDIKLEMERStraight Flush240,000
325/09 02:12AAC7ED0CStraight Flush240,000
425/09 02:12MONIQUE21Straight Flush600,000
525/09 02:11CVMUTIARA8Straight Flush120,000
LATEST JACKPOT
No.TanggalNamaPriceWin
125/09 02:17D558F8B3Full House5,000
225/09 02:17GERAIDOFull House10,000
325/09 02:17FF321KKFull House5,000
425/09 02:17YULIANI11Full House1,000
525/09 02:17WYOFull House1,000
625/09 02:17FAHMAMFull House2,000
725/09 02:17POKERSM221Full House1,000
825/09 02:17PAILAYFull House1,000
925/09 02:17ABASAFull House5,000
1025/09 02:17ONGCAAFull House10,000
1125/09 02:17BALECOS199Four Of A Kind250,000
1225/09 02:17E27A008EFull House2,000
1325/09 02:17POKSAY98Full House1,000
1425/09 02:17DEWA1977Full House2,000
1525/09 02:17HARAJAKI01Full House1,000
1625/09 02:17KARUN123Full House2,000
1725/09 02:17NEKO_LUCKFull House2,000
1825/09 02:17KIREN89Full House1,000
1925/09 02:17AADRAL4L7Full House2,000
2025/09 02:17DIAT2012Full House5,000
2125/09 02:17CHICKBRANEFull House1,000
2225/09 02:17GONZALOPLYFull House2,000
2325/09 02:17Q123CMW6DJFull House1,000
2425/09 02:17Q5AB3IPQIPFour Of A Kind125,000
2525/09 02:17MARFUD99Full House5,000
2625/09 02:17EBFF6166Full House1,000
2725/09 02:17HOBI99Full House1,000
2825/09 02:17BULDOZER98Full House20,000
2925/09 02:17C7F699AEFull House1,000
3025/09 02:17KAKEK_99Full House10,000
3125/09 02:17RVP777Full House1,000
3225/09 02:17NJUN88Full House1,000
3325/09 02:17OLE9000Full House2,000
3425/09 02:17GODEG0777Full House2,000
3525/09 02:17GIEFRENFull House2,000
3625/09 02:17TUYULRP00Full House10,000
3725/09 02:17AVIAN95Full House5,000
3825/09 02:17AJ44_Full House1,000
3925/09 02:17SAMEERRFour Of A Kind25,000
4025/09 02:17B6123926Full House1,000
4125/09 02:17BARGASFull House2,000
4225/09 02:17TOPANX123Full House5,000
4325/09 02:17AUREL88Four Of A Kind500,000
4425/09 02:17JUNI0RSFull House2,000
4525/09 02:17OCHOLFull House2,000
4625/09 02:17CAT_900Full House2,000
4725/09 02:17G4N00LFull House2,000
4825/09 02:17CONK_UGIFull House2,000
4925/09 02:17SATRIAOJIFull House2,000
5025/09 02:17TONYKMSFull House1,000

Domino Multi Jackpot System

Ikutilah global jackpot yang tersedia di system kami, dengan system jackpot terbaru dan pertama di indonesia, anda dapat membeli jackpot dengan harga 100 rupiah saja dan menangkan hadiahnya hingga puluhan juta rupiah.

Jackpot bukanlah suatu keharusan untuk dibeli, namun kami memberikan suatu fitur tambahan untuk member tercinta dari www.aseanpoker.co.

Terdapat tiga pilihan harga jackpot yang bisa anda beli yaitu :100,500 dan 1000 rupiah.

Hadiah dari Multi jackpot system www.aseanpoker.co

  1. Murni Kecil x 50 harga jackpot yang anda beli.
      (contoh:anda membeli 1000 maka:1000 X 50 = 50.000)
  2. Murni Besar x 50 harga jackpot yang anda beli
      (contoh:anda membeli 1000 maka:1000 X 50 = 50.000)
  3. BALAK x 100 harga jackpot yang anda beli
      (contoh:anda membeli 1000 maka:1000 X 100 = 100.000)
  4. ENAM DEWA x 6666 harga jackpot yang anda beli
      (contoh:anda membeli 1000 maka:1000 X 6666 = 6.666.000)

Demikian adalah penjelasan dari Multi Jackpot www.aseanpoker.co terima kasih dan selamat bermain salam hoki dari kami

Domino Jackpot Winner

TOP ENAM DEWA
No.TanggalNamaPriceWin
124/09 23:14SUTRIS80murni enam666,600
224/09 22:52LAELADEWImurni enam3,333,000
324/09 22:36DODOR21murni enam666,600
424/09 22:31IWAN880murni enam666,600
524/09 18:53GOOG369murni enam6,666,000
TOP BALAK
No.TanggalNamaPriceWin
125/09 02:17MORATTIbalak100,000
225/09 02:15PUKUL9balak10,000
325/09 02:13RAVINUS23balak50,000
425/09 02:13SHORT89balak50,000
525/09 02:12L6FIUF9C8Tbalak10,000
LATEST JACKPOT
No.TanggalNamaPriceWin
125/09 02:17AUUUUUUUNGmurni besar5,000
225/09 02:17PUTAKA99murni kecil50,000
325/09 02:17MORATTIbalak100,000
425/09 02:16HUISANmurni kecil50,000
525/09 02:16TIUTTIUTmurni besar50,000
625/09 02:15PUKUL9balak10,000
725/09 02:15TEMPUYAK90murni kecil25,000
825/09 02:15KAPAL88murni besar25,000
925/09 02:15BAOT99TROSmurni besar5,000
1025/09 02:15AWI567murni besar5,000
1125/09 02:14BOEDHY10murni kecil50,000
1225/09 02:14ANINOP66murni besar5,000
1325/09 02:13WIRO12345murni besar5,000
1425/09 02:13RAVINUS23balak50,000
1525/09 02:13SHORT89balak50,000
1625/09 02:13ARDIANTOmurni kecil25,000
1725/09 02:13LK4DKUMISMANISmurni besar50,000
1825/09 02:12ANTO5_5murni kecil25,000
1925/09 02:12HOKICU80murni besar5,000
2025/09 02:12R474Qmurni kecil50,000
2125/09 02:12L6FIUF9C8Tbalak10,000
2225/09 02:11NIKMAT14murni kecil50,000
2325/09 02:11BITENGW3S1murni besar25,000
2425/09 02:10DAKJALmurni kecil5,000
2525/09 02:10RBS497murni besar50,000
2625/09 02:10JAZIL0murni besar5,000
2725/09 02:09PALEM36murni besar50,000
2825/09 02:09EWAKO998murni besar5,000
2925/09 02:08AN6617lucky9925,000
3025/09 02:08TIYO888murni kecil50,000
3125/09 02:08V6RJ0O1EU6lucky992,500
3225/09 02:07VIRGINJOmurni kecil50,000
3325/09 02:07AJ11B9lucky9925,000
3425/09 02:06CEKERWWDmurni kecil25,000
3525/09 02:06MDNG5454murni kecil50,000
3625/09 02:06ZOMBIQQmurni besar50,000
3725/09 02:06LOGANLO212balak100,000
3825/09 02:05H2TEVP2H0Xlucky9925,000
3925/09 02:05SUT012murni besar50,000
4025/09 02:04ARDIANTOmurni kecil25,000
4125/09 02:03RIZKY28lucky9910,000
4225/09 02:02BERDARAmurni kecil50,000
4325/09 02:02PUTAKA99murni besar50,000
4425/09 02:02CIPUY78murni besar50,000
4525/09 02:02ABAHINO88murni besar25,000
4625/09 02:02MICKEY98murni besar50,000
4725/09 02:02REZKYY77murni kecil5,000
4825/09 02:02HARIANSYAHmurni besar25,000
4925/09 02:02NGOWOH01lucky9950,000
5025/09 02:01RUPIT91murni kecil5,000

Ceme Multi Jackpot System

Jackpot dilihat dari gabungan kartu pemain dengan kartu bandar. Bandar harus membeli jackpot sebanyak jumlah player yang sedang duduk. Sebagai contoh bila terdapat 3 pemain duduk bermain, dan bandar memutuskan untuk membeli jackpot Rp 1.000, maka pada periode tersebut bandar akan membeli jackpot sebanyak 3xRp1.000 = Rp3.000.

Jackpot bukanlah suatu keharusan untuk dibeli, namun kami memberikan suatu fitur tambahan untuk member tercinta dari www.aseanpoker.co.

Terdapat tiga pilihan harga jackpot yang bisa anda beli yaitu :100,500 dan 1000 rupiah.

Hadiah dari Multi jackpot system www.aseanpoker.co

  1. Murni Kecil x 50 harga jackpot yang anda beli.
      (contoh:anda membeli 1000 maka:1000 X 50 = 50.000)
  2. Murni Besar x 50 harga jackpot yang anda beli
      (contoh:anda membeli 1000 maka:1000 X 50 = 50.000)
  3. BALAK x 200 harga jackpot yang anda beli
      (contoh:anda membeli 1000 maka:1000 X 200 = 200.000)
  4. ENAM DEWA x 6666 harga jackpot yang anda beli
      (contoh:anda membeli 1000 maka:1000 X 6666 = 6.666.000)

Demikian adalah penjelasan dari Multi Jackpot www.aseanpoker.co terima kasih dan selamat bermain salam hoki dari kami

Ceme Jackpot Winner

TOP ENAM DEWA
No.TanggalNamaPriceWin
125/09 02:07EICO114murni enam3,333,000
225/09 01:59YOU136murni enam666,600
325/09 01:59BIMA00murni enam666,600
425/09 01:50LEMKAmurni enam6,666,000
525/09 01:49MASBROWNISmurni enam6,666,000
TOP BALAK
No.TanggalNamaPriceWin
125/09 02:17RADJA09balak200,000
225/09 02:17SEROJA12balak200,000
325/09 02:16ROMILbalak200,000
425/09 02:16BOSBUNGAbalak200,000
525/09 02:16CUPLES99balak20,000
LATEST JACKPOT
No.TanggalNamaPriceWin
125/09 02:17A27AGNASR10174murni besar50,000
225/09 02:17DAKJALmurni besar5,000
325/09 02:17CEPIIIR22murni kecil50,000
425/09 02:17KHANJOETmurni kecil5,000
525/09 02:17PROV1987murni kecil50,000
625/09 02:17JARNOZ2murni kecil50,000
725/09 02:17AMEL14murni kecil25,000
825/09 02:17RADJA09balak200,000
925/09 02:17SEROJA12balak200,000
1025/09 02:17WEULINGmurni besar50,000
1125/09 02:17EVEN099murni kecil50,000
1225/09 02:17R4M11murni kecil50,000
1325/09 02:17EVEN099murni kecil50,000
1425/09 02:17JTD324murni kecil50,000
1525/09 02:16ROMILmurni besar50,000
1625/09 02:16YUNIOURmurni besar50,000
1725/09 02:16ROMILbalak200,000
1825/09 02:16M3LATImurni besar25,000
1925/09 02:16M3LATImurni besar25,000
2025/09 02:16SUDIRMAN7murni kecil50,000
2125/09 02:16BOSBUNGAmurni besar50,000
2225/09 02:16ALDA18murni besar5,000
2325/09 02:16BOSBUNGAbalak200,000
2425/09 02:16CUPLES99balak20,000
2525/09 02:16DAV9999murni besar50,000
2625/09 02:16SUGITO87murni kecil50,000
2725/09 02:16AKBAR765balak100,000
2825/09 02:16AMEL14murni besar25,000
2925/09 02:16ROYAL2018murni besar5,000
3025/09 02:16SIHMHM96murni kecil25,000
3125/09 02:16ADL1206murni kecil25,000
3225/09 02:16CMR4IFUNmurni kecil25,000
3325/09 02:16SAPFRImurni kecil50,000
3425/09 02:16SNI36588murni kecil25,000
3525/09 02:16G0SONG123balak200,000
3625/09 02:15ANDRE939murni besar50,000
3725/09 02:15SOVHIE2015murni besar25,000
3825/09 02:15TANAKBIDmurni besar50,000
3925/09 02:15CISS123murni besar50,000
4025/09 02:15LGS605murni besar5,000
4125/09 02:15HSHOCK9balak200,000
4225/09 02:15DAYAT1410murni besar50,000
4325/09 02:15SNI64642murni besar25,000
4425/09 02:15G0SONG123murni kecil50,000
4525/09 02:14WIDIANTARAbalak20,000
4625/09 02:14ANDRE939murni besar50,000
4725/09 02:14SOVHIE2015murni besar5,000
4825/09 02:14JAKM4NIAmurni kecil50,000
4925/09 02:14APENGLAU1murni kecil50,000
5025/09 02:14DWBTANZ72murni kecil25,000